QFA532 YMML-RCTP

Flight info

Callsign QFA532
Flight time N/A
Altitude 34000
Route KEPPA3 KEPPA H336 NATYA DCT 3200S14145E 3000S14050E DCT MENIG DCT 2400S13755E DCT DUNAN DCT 1800S13450E 1500S13310E DCT BUTPA A461 AMN/N0492F360 R590 COT W21 MCT W11 MIA B462 LAO/N0486F370 M646 POTIB Q14 TNN TNN1A
Aircraft B77W/H-SDE1E2E3FGHIJ2J3J4J5M1RWXY/LB1D1

Departure

Time 2026-04-30 17:58
Airport Melbourne Airport (YMML)

Arrival

Time N/A
Airport Taiwan Taoyuan International Airport (RCTP)
Time Latitude Longitude Altitude Speed Heading
2026-04-30 17:42 -37.66764 144.84310 374 ft 0 kts 82°
2026-04-30 17:47 -37.66768 144.84237 378 ft 2 kts 92°
2026-04-30 17:48 -37.66743 144.84185 380 ft 0 kts 171°
2026-04-30 17:50 -37.66808 144.84197 379 ft 10 kts 171°
2026-04-30 17:51 -37.67069 144.84178 376 ft 12 kts 257°
2026-04-30 17:52 -37.67360 144.84086 372 ft 24 kts 172°
2026-04-30 17:53 -37.68063 144.84430 354 ft 27 kts 171°
2026-04-30 17:54 -37.68544 144.84253 334 ft 0 kts 260°
2026-04-30 17:55 -37.68543 144.84106 335 ft 7 kts 320°
2026-04-30 17:56 -37.68282 144.84044 351 ft 64 kts 352°
2026-04-30 17:57 -37.65235 144.83537 960 ft 183 kts 354°
2026-04-30 17:58 -37.61455 144.82800 2684 ft 201 kts 352°
2026-04-30 17:59 -37.55481 144.80971 4514 ft 236 kts 324°
2026-04-30 18:00 -37.50853 144.75860 6887 ft 244 kts 321°
2026-04-30 18:00 -37.46914 144.71476 8492 ft 258 kts 320°
2026-04-30 18:01 -37.44197 144.68456 9632 ft 266 kts 320°
2026-04-30 18:02 -37.39802 144.63582 10582 ft 307 kts 320°
2026-04-30 18:02 -37.34581 144.57795 11443 ft 353 kts 320°
2026-04-30 18:03 -37.28929 144.51539 13474 ft 367 kts 319°
2026-04-30 18:04 -37.23091 144.45095 15569 ft 376 kts 319°
2026-04-30 18:05 -37.15047 144.36240 18065 ft 393 kts 319°
2026-04-30 18:06 -37.06754 144.27138 20275 ft 408 kts 319°
2026-04-30 18:07 -36.98073 144.17639 22439 ft 421 kts 319°
2026-04-30 18:08 -36.91375 144.10330 23936 ft 431 kts 319°
2026-04-30 18:09 -36.82232 144.00380 25654 ft 441 kts 319°
2026-04-30 18:10 -36.71141 143.93962 26980 ft 452 kts 341°
2026-04-30 18:11 -36.59071 143.89043 28408 ft 462 kts 340°
2026-04-30 18:11 -36.49848 143.85219 29427 ft 469 kts 340°
2026-04-30 18:12 -36.40514 143.81363 30429 ft 472 kts 340°
2026-04-30 18:13 -36.34298 143.78803 31070 ft 471 kts 340°
2026-04-30 18:13 -36.26011 143.75396 31847 ft 471 kts 340°
2026-04-30 18:14 -36.18716 143.72403 32453 ft 472 kts 340°
2026-04-30 18:15 -36.09351 143.68569 33182 ft 474 kts 340°
2026-04-30 18:15 -36.00022 143.64760 33965 ft 472 kts 340°
2026-04-30 18:16 -35.93763 143.62210 34227 ft 476 kts 340°
2026-04-30 18:16 -35.87472 143.59650 34284 ft 475 kts 340°
2026-04-30 18:17 -35.81218 143.57111 34282 ft 471 kts 340°
2026-04-30 18:18 -35.71895 143.53333 34269 ft 469 kts 340°
2026-04-30 18:18 -35.65690 143.50823 34251 ft 470 kts 340°
2026-04-30 18:19 -35.59470 143.48311 34284 ft 471 kts 340°
2026-04-30 18:19 -35.53222 143.45791 34273 ft 474 kts 340°
2026-04-30 18:20 -35.46958 143.43270 34276 ft 476 kts 340°
2026-04-30 18:20 -35.40651 143.40736 34278 ft 477 kts 340°
2026-04-30 18:21 -35.34340 143.38205 34264 ft 477 kts 340°
2026-04-30 18:21 -35.28032 143.35678 34250 ft 477 kts 340°
2026-04-30 18:22 -35.21722 143.33156 34284 ft 476 kts 340°
2026-04-30 18:22 -35.12277 143.29386 34245 ft 476 kts 340°
2026-04-30 18:23 -35.05984 143.26880 34286 ft 475 kts 340°
2026-04-30 18:23 -34.99701 143.24381 34248 ft 475 kts 340°
2026-04-30 18:24 -34.90516 143.20058 34269 ft 473 kts 334°
2026-04-30 18:25 -34.84495 143.16816 34259 ft 473 kts 334°
2026-04-30 18:25 -34.75441 143.11997 34258 ft 473 kts 335°
2026-04-30 18:26 -34.66368 143.07244 34261 ft 473 kts 335°
2026-04-30 18:27 -34.57285 143.02506 34258 ft 474 kts 335°
2026-04-30 18:28 -34.48195 142.97772 34249 ft 474 kts 335°
2026-04-30 18:28 -34.39105 142.93047 34249 ft 473 kts 335°
2026-04-30 18:29 -34.27000 142.86774 34245 ft 473 kts 335°
2026-04-30 18:30 -34.14945 142.80546 34245 ft 472 kts 335°
2026-04-30 18:31 -34.05887 142.75880 34238 ft 472 kts 334°
2026-04-30 18:32 -33.96832 142.71225 34244 ft 471 kts 334°
2026-04-30 18:33 -33.87788 142.66588 34240 ft 471 kts 334°
2026-04-30 18:33 -33.78750 142.61963 34241 ft 471 kts 334°
2026-04-30 18:34 -33.69705 142.57347 34231 ft 471 kts 334°
2026-04-30 18:35 -33.63669 142.54271 34240 ft 471 kts 334°
2026-04-30 18:35 -33.57634 142.51201 34235 ft 471 kts 334°
2026-04-30 18:36 -33.48582 142.46605 34236 ft 471 kts 334°
2026-04-30 18:37 -33.39560 142.42035 34236 ft 471 kts 334°
2026-04-30 18:37 -33.33529 142.38985 34230 ft 471 kts 334°
2026-04-30 18:38 -33.27482 142.35932 34244 ft 471 kts 334°
2026-04-30 18:38 -33.21440 142.32886 34231 ft 471 kts 334°
2026-04-30 18:39 -33.15393 142.29844 34235 ft 471 kts 334°
2026-04-30 18:39 -33.09346 142.26803 34223 ft 472 kts 333°
2026-04-30 18:40 -33.03290 142.23764 34233 ft 472 kts 333°
2026-04-30 18:40 -32.97231 142.20729 34231 ft 473 kts 333°
2026-04-30 18:41 -32.91160 142.17692 34220 ft 473 kts 333°
2026-04-30 18:41 -32.85083 142.14656 34233 ft 474 kts 333°
2026-04-30 18:42 -32.78995 142.11618 34226 ft 474 kts 333°
2026-04-30 18:42 -32.70884 142.07579 34226 ft 475 kts 333°
2026-04-30 18:45 -32.37326 141.90953 34220 ft 475 kts 332°
2026-04-30 18:46 -32.31228 141.87946 34227 ft 475 kts 332°
2026-04-30 18:46 -32.25125 141.84941 34225 ft 475 kts 332°
2026-04-30 18:47 -32.19018 141.81938 34226 ft 475 kts 332°
2026-04-30 18:47 -32.12913 141.78941 34219 ft 475 kts 332°
2026-04-30 18:48 -32.06811 141.75950 34229 ft 475 kts 332°
2026-04-30 18:48 -32.00750 141.72983 34228 ft 475 kts 332°
2026-04-30 18:49 -31.94649 141.70000 34224 ft 475 kts 332°
2026-04-30 18:49 -31.88543 141.67020 34227 ft 475 kts 332°
2026-04-30 18:50 -31.82446 141.64048 34226 ft 475 kts 332°
2026-04-30 18:50 -31.76343 141.61078 34218 ft 475 kts 332°
2026-04-30 18:51 -31.70239 141.58111 34225 ft 474 kts 332°
2026-04-30 18:51 -31.64140 141.55151 34220 ft 474 kts 332°
2026-04-30 18:52 -31.58045 141.52198 34210 ft 474 kts 332°
2026-04-30 18:52 -31.51954 141.49250 34219 ft 474 kts 332°
2026-04-30 18:53 -31.45855 141.46303 34214 ft 474 kts 332°
2026-04-30 18:53 -31.39755 141.43359 34221 ft 474 kts 332°
2026-04-30 18:54 -31.33661 141.40421 34215 ft 474 kts 332°
2026-04-30 18:54 -31.27561 141.37487 34217 ft 474 kts 332°
2026-04-30 18:55 -31.21499 141.34573 34215 ft 474 kts 333°
2026-04-30 18:55 -31.12352 141.30185 34202 ft 474 kts 333°
2026-04-30 18:56 -31.03204 141.25806 34214 ft 473 kts 333°
2026-04-30 18:57 -30.94068 141.21441 34198 ft 473 kts 333°
2026-04-30 18:57 -30.87974 141.18535 34209 ft 473 kts 333°
2026-04-30 18:58 -30.78833 141.14184 34201 ft 473 kts 333°
2026-04-30 18:59 -30.69694 141.09842 34199 ft 472 kts 332°
2026-04-30 19:00 -30.57544 141.04085 34173 ft 471 kts 332°
2026-04-30 19:01 -30.45479 140.98381 34192 ft 469 kts 332°
2026-04-30 19:02 -30.36408 140.94102 34188 ft 469 kts 332°
2026-04-30 19:03 -30.24301 140.88408 34185 ft 470 kts 332°
2026-04-30 19:04 -30.12184 140.82722 34183 ft 469 kts 331°
2026-04-30 19:05 -30.00109 140.77072 34177 ft 467 kts 332°
2026-04-30 19:06 -29.88078 140.71456 34181 ft 466 kts 332°
2026-04-30 19:06 -29.79067 140.67260 34177 ft 466 kts 332°
2026-04-30 19:07 -29.70066 140.63078 34188 ft 464 kts 332°
2026-04-30 19:08 -29.58103 140.57530 34171 ft 462 kts 332°
2026-04-30 19:09 -29.49170 140.53396 34159 ft 461 kts 332°
2026-04-30 19:09 -29.43225 140.50650 34169 ft 461 kts 332°
2026-04-30 19:10 -29.31360 140.45178 34172 ft 462 kts 332°
2026-04-30 19:11 -29.22402 140.41056 34175 ft 463 kts 332°
2026-04-30 19:12 -29.16422 140.38310 34170 ft 463 kts 332°
2026-04-30 19:12 -29.10448 140.35570 34168 ft 463 kts 332°
2026-04-30 19:13 -28.98501 140.30099 34139 ft 462 kts 332°
2026-04-30 19:14 -28.92537 140.27372 34155 ft 462 kts 333°
2026-04-30 19:14 -28.86559 140.24644 34156 ft 462 kts 333°
2026-04-30 19:15 -28.80583 140.21919 34159 ft 463 kts 333°
2026-04-30 19:15 -28.71646 140.17851 34142 ft 464 kts 333°
2026-04-30 19:16 -28.65646 140.15124 34145 ft 464 kts 333°
2026-04-30 19:17 -28.56654 140.11044 34148 ft 464 kts 333°
2026-04-30 19:17 -28.47656 140.06968 34149 ft 464 kts 333°
2026-04-30 19:18 -28.38650 140.02896 34148 ft 464 kts 333°
2026-04-30 19:19 -28.32639 140.00183 34159 ft 465 kts 333°
2026-04-30 19:19 -28.23617 139.96115 34142 ft 465 kts 333°
2026-04-30 19:20 -28.17594 139.93404 34135 ft 466 kts 333°
2026-04-30 19:21 -28.08519 139.89325 34141 ft 470 kts 333°
2026-04-30 19:22 -27.96312 139.83851 34149 ft 473 kts 333°
2026-04-30 19:23 -27.77934 139.75637 34141 ft 473 kts 333°
2026-04-30 19:24 -27.68757 139.71545 34136 ft 472 kts 332°
2026-04-30 19:25 -27.53513 139.64766 34135 ft 473 kts 332°
2026-04-30 19:26 -27.41214 139.59309 34134 ft 474 kts 332°
2026-04-30 19:27 -27.32031 139.55245 34129 ft 475 kts 331°
2026-04-30 19:28 -27.22776 139.51155 34130 ft 477 kts 331°
2026-04-30 19:29 -27.11464 139.46167 34125 ft 477 kts 331°
2026-04-30 19:30 -26.99109 139.40732 34131 ft 476 kts 331°
2026-04-30 19:31 -26.86797 139.35327 34122 ft 474 kts 331°
2026-04-30 19:31 -26.77582 139.31289 34129 ft 474 kts 331°
2026-04-30 19:32 -26.71513 139.28459 34133 ft 470 kts 328°
2026-04-30 19:32 -26.65587 139.25354 34128 ft 471 kts 327°
2026-04-30 19:33 -26.59659 139.22230 34124 ft 471 kts 327°
2026-04-30 19:33 -26.53713 139.19117 34126 ft 472 kts 327°
2026-04-30 19:34 -26.47760 139.16017 34123 ft 472 kts 327°
2026-04-30 19:35 -26.38850 139.11388 34123 ft 472 kts 328°
2026-04-30 19:35 -26.32894 139.08298 34114 ft 472 kts 327°
2026-04-30 19:36 -26.26933 139.05209 34122 ft 472 kts 327°
2026-04-30 19:36 -26.17997 139.00582 34117 ft 472 kts 327°
2026-04-30 19:37 -26.12043 138.97503 34121 ft 473 kts 327°
2026-04-30 19:37 -26.06069 138.94419 34123 ft 473 kts 327°
2026-04-30 19:38 -26.00093 138.91336 34116 ft 474 kts 327°
2026-04-30 19:38 -25.94114 138.88257 34108 ft 474 kts 327°
2026-04-30 19:39 -25.88163 138.85194 34124 ft 474 kts 327°
2026-04-30 19:39 -25.82183 138.82121 34111 ft 473 kts 327°
2026-04-30 19:40 -25.76209 138.79055 34118 ft 473 kts 327°
2026-04-30 19:40 -25.70245 138.75996 34110 ft 472 kts 327°
2026-04-30 19:41 -25.64288 138.72943 34109 ft 471 kts 327°
2026-04-30 19:41 -25.58335 138.69896 34111 ft 472 kts 327°
2026-04-30 19:42 -25.52365 138.66844 34111 ft 472 kts 327°
2026-04-30 19:42 -25.46394 138.63795 34105 ft 473 kts 327°
2026-04-30 19:43 -25.40420 138.60748 34089 ft 473 kts 327°
2026-04-30 19:44 -25.31434 138.56171 34104 ft 475 kts 327°
2026-04-30 19:44 -25.25430 138.53117 34115 ft 475 kts 327°
2026-04-30 19:45 -25.19415 138.50060 34100 ft 476 kts 328°
2026-04-30 19:45 -25.13395 138.47006 34109 ft 476 kts 328°
2026-04-30 19:46 -25.07376 138.43954 34101 ft 476 kts 328°
2026-04-30 19:46 -25.01394 138.40925 34111 ft 475 kts 328°
2026-04-30 19:47 -24.95394 138.37890 34110 ft 474 kts 328°
2026-04-30 19:47 -24.89403 138.34863 34102 ft 473 kts 328°
2026-04-30 19:48 -24.83419 138.31841 34093 ft 473 kts 328°
2026-04-30 19:48 -24.77449 138.28831 34106 ft 472 kts 328°
2026-04-30 19:49 -24.71471 138.25819 34098 ft 472 kts 328°
2026-04-30 19:49 -24.62504 138.21307 34093 ft 472 kts 328°
2026-04-30 19:50 -24.56524 138.18303 34088 ft 472 kts 328°
2026-04-30 19:50 -24.50544 138.15301 34096 ft 473 kts 328°
2026-04-30 19:51 -24.44554 138.12298 34107 ft 473 kts 328°
2026-04-30 19:51 -24.38563 138.09298 34103 ft 474 kts 328°
2026-04-30 19:52 -24.32563 138.06296 34103 ft 474 kts 328°
2026-04-30 19:52 -24.26599 138.03315 34085 ft 474 kts 328°
2026-04-30 19:53 -24.20593 138.00316 34094 ft 474 kts 328°
2026-04-30 19:53 -24.14587 137.97321 34112 ft 474 kts 328°
2026-04-30 19:54 -24.08579 137.94327 34107 ft 474 kts 328°
2026-04-30 19:54 -24.02569 137.91336 34107 ft 474 kts 328°
2026-04-30 19:55 -23.96561 137.88350 34083 ft 474 kts 328°
2026-04-30 19:55 -23.90560 137.85369 34103 ft 474 kts 328°
2026-04-30 19:56 -23.84547 137.82385 34095 ft 474 kts 328°
2026-04-30 19:56 -23.78534 137.79404 34092 ft 474 kts 329°
2026-04-30 19:57 -23.72553 137.76443 34102 ft 474 kts 329°
2026-04-30 19:57 -23.66542 137.73470 34100 ft 474 kts 329°
2026-04-30 19:58 -23.60526 137.70497 34105 ft 475 kts 329°
2026-04-30 19:58 -23.54509 137.67527 34101 ft 475 kts 329°
2026-04-30 19:59 -23.48488 137.64557 34102 ft 475 kts 329°
2026-04-30 20:00 -23.39458 137.60109 34089 ft 475 kts 329°
2026-04-30 20:00 -23.33442 137.57150 34098 ft 474 kts 329°
2026-04-30 20:01 -23.24417 137.52716 34102 ft 474 kts 329°
2026-04-30 20:01 -23.18398 137.49762 34096 ft 474 kts 329°
2026-04-30 20:02 -23.09408 137.45356 34100 ft 474 kts 329°
2026-04-30 20:03 -23.00373 137.40934 34103 ft 475 kts 329°
2026-04-30 20:03 -22.94297 137.37964 34090 ft 476 kts 329°
2026-04-30 20:04 -22.88296 137.35034 34103 ft 476 kts 329°
2026-04-30 20:05 -22.79231 137.30613 34086 ft 476 kts 329°
2026-04-30 20:05 -22.70159 137.26195 34098 ft 477 kts 329°
2026-04-30 20:06 -22.64103 137.23249 34098 ft 477 kts 329°
2026-04-30 20:06 -22.58043 137.20305 34097 ft 477 kts 329°
2026-04-30 20:07 -22.51974 137.17358 34085 ft 478 kts 330°
2026-04-30 20:08 -22.42875 137.12947 34095 ft 478 kts 330°
2026-04-30 20:08 -22.36809 137.10009 34100 ft 478 kts 330°
2026-04-30 20:09 -22.30734 137.07070 34105 ft 478 kts 330°
2026-04-30 20:09 -22.21610 137.02660 34077 ft 479 kts 330°
2026-04-30 20:10 -22.12474 136.98251 34099 ft 480 kts 330°
2026-04-30 20:11 -22.03323 136.93842 34094 ft 480 kts 330°
2026-04-30 20:11 -21.97259 136.90924 34090 ft 480 kts 330°
2026-04-30 20:12 -21.88103 136.86522 34091 ft 480 kts 330°
2026-04-30 20:13 -21.82000 136.83592 34092 ft 480 kts 330°
2026-04-30 20:13 -21.75889 136.80660 34090 ft 481 kts 330°
2026-04-30 20:14 -21.69780 136.77732 34074 ft 481 kts 330°
2026-04-30 20:14 -21.63666 136.74805 34089 ft 481 kts 330°
2026-04-30 20:15 -21.57554 136.71881 34084 ft 481 kts 330°
2026-04-30 20:15 -21.52475 136.69453 34087 ft 481 kts 330°
2026-04-30 20:16 -21.46366 136.66535 34085 ft 481 kts 330°
2026-04-30 20:16 -21.40253 136.63618 34078 ft 481 kts 330°
2026-04-30 20:17 -21.34138 136.60702 34082 ft 481 kts 330°
2026-04-30 20:17 -21.28015 136.57785 34083 ft 481 kts 330°
2026-04-30 20:18 -21.22052 136.54577 34092 ft 477 kts 326°
2026-04-30 20:18 -21.16234 136.51138 34085 ft 478 kts 326°
2026-04-30 20:19 -21.10413 136.47700 34072 ft 478 kts 326°
2026-04-30 20:19 -21.04571 136.44272 34083 ft 479 kts 326°
2026-04-30 20:20 -20.98725 136.40856 34083 ft 479 kts 326°
2026-04-30 20:20 -20.92862 136.37435 34079 ft 480 kts 326°
2026-04-30 20:21 -20.87005 136.34021 34079 ft 479 kts 326°
2026-04-30 20:21 -20.81185 136.30630 34079 ft 479 kts 326°
2026-04-30 20:22 -20.75337 136.27226 34075 ft 479 kts 326°
2026-04-30 20:22 -20.69485 136.23822 34077 ft 478 kts 326°
2026-04-30 20:23 -20.63637 136.20424 34075 ft 478 kts 326°
2026-04-30 20:23 -20.57798 136.17033 34077 ft 478 kts 326°
2026-04-30 20:24 -20.51951 136.13641 34066 ft 478 kts 326°
2026-04-30 20:24 -20.46112 136.10258 34071 ft 477 kts 326°
2026-04-30 20:25 -20.37359 136.05190 34067 ft 478 kts 326°
2026-04-30 20:26 -20.28591 136.00120 34074 ft 478 kts 326°
2026-04-30 20:26 -20.19822 135.95056 34070 ft 478 kts 326°
2026-04-30 20:27 -20.08126 135.88313 34068 ft 478 kts 326°
2026-04-30 20:28 -19.96438 135.81585 34050 ft 477 kts 327°
2026-04-30 20:30 -19.81830 135.73193 34067 ft 477 kts 327°
2026-04-30 20:31 -19.64316 135.63154 34057 ft 478 kts 327°
2026-04-30 20:32 -19.49675 135.54782 34064 ft 478 kts 327°
2026-04-30 20:33 -19.40888 135.49765 34062 ft 478 kts 327°
2026-04-30 20:34 -19.32097 135.44752 34062 ft 478 kts 327°
2026-04-30 20:35 -19.23310 135.39749 34059 ft 478 kts 327°
2026-04-30 20:35 -19.14524 135.34751 34060 ft 478 kts 327°
2026-04-30 20:36 -19.08667 135.31423 34057 ft 478 kts 327°
2026-04-30 20:37 -18.99876 135.26433 34065 ft 478 kts 328°
2026-04-30 20:37 -18.94007 135.23104 34056 ft 479 kts 328°
2026-04-30 20:38 -18.88168 135.19796 34051 ft 480 kts 328°
2026-04-30 20:38 -18.82277 135.16460 34064 ft 480 kts 328°
2026-04-30 20:39 -18.73440 135.11462 34054 ft 481 kts 328°
2026-04-30 20:40 -18.64585 135.06459 34052 ft 482 kts 328°
2026-04-30 20:40 -18.58661 135.03116 34052 ft 483 kts 328°
2026-04-30 20:41 -18.49767 134.98102 34027 ft 483 kts 328°
2026-04-30 20:41 -18.43846 134.94767 34053 ft 482 kts 328°
2026-04-30 20:42 -18.37925 134.91435 34043 ft 482 kts 328°
2026-04-30 20:43 -18.29052 134.86446 34044 ft 482 kts 328°
2026-04-30 20:43 -18.23142 134.83126 34049 ft 481 kts 328°
2026-04-30 20:44 -18.14279 134.78153 34052 ft 481 kts 328°
2026-04-30 20:45 -18.02456 134.71527 34048 ft 482 kts 328°
2026-04-30 20:45 -17.96580 134.68238 34047 ft 482 kts 328°
2026-04-30 20:46 -17.84747 134.61622 34038 ft 482 kts 328°
2026-04-30 20:47 -17.75870 134.56665 34041 ft 481 kts 329°
2026-04-30 20:48 -17.67003 134.51720 34046 ft 481 kts 329°
2026-04-30 20:48 -17.61083 134.48421 34044 ft 481 kts 329°
2026-04-30 20:49 -17.55169 134.45128 34044 ft 481 kts 329°
2026-04-30 20:50 -17.46292 134.40190 34038 ft 481 kts 329°
2026-04-30 20:50 -17.40372 134.36899 34039 ft 482 kts 329°
2026-04-30 20:51 -17.34485 134.33630 34037 ft 482 kts 329°
2026-04-30 20:51 -17.25596 134.28698 34038 ft 482 kts 329°
2026-04-30 20:52 -17.19664 134.25409 34040 ft 482 kts 329°
2026-04-30 20:53 -17.10785 134.20492 34037 ft 481 kts 329°
2026-04-30 20:53 -17.04871 134.17220 34040 ft 481 kts 329°
2026-04-30 20:54 -16.96007 134.12320 34039 ft 479 kts 329°
2026-04-30 20:55 -16.87211 134.07462 34032 ft 478 kts 329°
2026-04-30 20:55 -16.81335 134.04220 34034 ft 477 kts 329°
2026-04-30 20:56 -16.72541 133.99372 34032 ft 476 kts 329°
2026-04-30 20:57 -16.63771 133.94542 34035 ft 475 kts 329°
2026-04-30 20:57 -16.57933 133.91330 34022 ft 474 kts 329°
2026-04-30 20:58 -16.49152 133.86503 34026 ft 473 kts 329°
2026-04-30 20:58 -16.43375 133.83329 34030 ft 472 kts 329°
2026-04-30 20:59 -16.34650 133.78542 34032 ft 472 kts 329°
2026-04-30 21:00 -16.23034 133.72174 34032 ft 471 kts 329°
2026-04-30 21:01 -16.15277 133.67927 34028 ft 471 kts 329°
2026-04-30 21:02 -16.06592 133.63176 34019 ft 469 kts 329°
2026-04-30 21:02 -16.00822 133.60022 34019 ft 468 kts 329°
2026-04-30 21:03 -15.95097 133.56896 34025 ft 467 kts 329°
2026-04-30 21:03 -15.89338 133.53752 34021 ft 467 kts 329°
2026-04-30 21:04 -15.83584 133.50613 34020 ft 467 kts 329°
2026-04-30 21:04 -15.74940 133.45901 34025 ft 468 kts 329°
2026-04-30 21:05 -15.69168 133.42757 34020 ft 469 kts 329°
2026-04-30 21:05 -15.63391 133.39614 34026 ft 469 kts 329°
2026-04-30 21:06 -15.57605 133.36466 34016 ft 469 kts 329°
2026-04-30 21:06 -15.51821 133.33322 34017 ft 469 kts 329°
2026-04-30 21:07 -15.46040 133.30181 34015 ft 469 kts 329°
2026-04-30 21:07 -15.40267 133.27048 34013 ft 467 kts 329°
2026-04-30 21:08 -15.34518 133.23930 34012 ft 466 kts 329°
2026-04-30 21:08 -15.28788 133.20823 34012 ft 464 kts 329°
2026-04-30 21:09 -15.23069 133.17723 34014 ft 464 kts 329°
2026-04-30 21:09 -15.17348 133.14625 34010 ft 464 kts 329°
2026-04-30 21:10 -15.11634 133.11532 34009 ft 464 kts 329°
2026-04-30 21:10 -15.05917 133.08440 34015 ft 464 kts 329°
2026-04-30 21:11 -15.00234 133.05368 34017 ft 464 kts 329°
2026-04-30 21:11 -14.94516 133.02280 34022 ft 464 kts 329°
2026-04-30 21:12 -14.88793 132.99189 34012 ft 464 kts 329°
2026-04-30 21:12 -14.83058 132.96095 34018 ft 464 kts 329°
2026-04-30 21:13 -14.77331 132.93007 34005 ft 465 kts 329°
2026-04-30 21:13 -14.71601 132.89919 34012 ft 465 kts 329°
2026-04-30 21:14 -14.65862 132.86828 34013 ft 465 kts 329°
2026-04-30 21:14 -14.60154 132.83756 34013 ft 466 kts 329°
2026-04-30 21:15 -14.54408 132.80665 34012 ft 466 kts 329°
2026-04-30 21:15 -14.48650 132.77569 34002 ft 467 kts 329°
2026-04-30 21:16 -14.42877 132.74467 34011 ft 468 kts 329°
2026-04-30 21:16 -14.37100 132.71365 34007 ft 469 kts 329°
2026-04-30 21:17 -14.31308 132.68256 34010 ft 469 kts 329°
2026-04-30 21:17 -14.25512 132.65147 34002 ft 470 kts 329°
2026-04-30 21:18 -14.19706 132.62036 33999 ft 471 kts 329°
2026-04-30 21:18 -14.13887 132.58918 34006 ft 471 kts 329°
2026-04-30 21:19 -14.08071 132.55804 33999 ft 471 kts 329°
2026-04-30 21:19 -14.02258 132.52693 33995 ft 471 kts 329°
2026-04-30 21:20 -13.96443 132.49584 34001 ft 471 kts 329°
2026-04-30 21:20 -13.90627 132.46475 34000 ft 471 kts 329°
2026-04-30 21:21 -13.84805 132.43364 34000 ft 471 kts 329°
2026-04-30 21:22 -13.76071 132.38702 33998 ft 472 kts 329°
2026-04-30 21:23 -13.64399 132.32477 33996 ft 473 kts 329°
2026-04-30 21:23 -13.55632 132.27807 33989 ft 473 kts 329°
2026-04-30 21:24 -13.49782 132.24693 33991 ft 473 kts 329°
2026-04-30 21:24 -13.43967 132.21598 33982 ft 473 kts 330°
2026-04-30 21:25 -13.35199 132.16936 33986 ft 473 kts 329°
2026-04-30 21:26 -13.26438 132.12281 33983 ft 472 kts 330°
2026-04-30 21:27 -13.17685 132.07634 33979 ft 472 kts 330°
2026-04-30 21:27 -13.11850 132.04539 33980 ft 472 kts 330°
2026-04-30 21:28 -13.03084 131.99892 33984 ft 473 kts 330°
2026-04-30 21:29 -12.94312 131.95245 33979 ft 473 kts 330°
2026-04-30 21:30 -12.79664 131.87493 33982 ft 474 kts 330°
2026-04-30 21:31 -12.65032 131.79761 33971 ft 475 kts 330°
2026-04-30 21:32 -12.56185 131.75091 33973 ft 475 kts 330°
2026-04-30 21:32 -12.50309 131.71991 33977 ft 475 kts 330°
2026-04-30 21:33 -12.41532 131.67363 33979 ft 475 kts 330°
2026-04-30 21:34 -12.35647 131.64262 33968 ft 476 kts 330°
2026-04-30 21:34 -12.26809 131.59608 33979 ft 476 kts 330°
2026-04-30 21:35 -12.20909 131.56504 33974 ft 477 kts 330°
2026-04-30 21:35 -12.15000 131.53396 33975 ft 478 kts 330°
2026-04-30 21:36 -12.09085 131.50286 33970 ft 478 kts 330°
2026-04-30 21:37 -11.97240 131.44064 33968 ft 479 kts 331°
2026-04-30 21:37 -11.91315 131.40954 33971 ft 479 kts 331°
2026-04-30 21:38 -11.85388 131.37844 33971 ft 479 kts 331°
2026-04-30 21:38 -11.79494 131.34753 33974 ft 480 kts 331°
2026-04-30 21:39 -11.73562 131.31644 33971 ft 480 kts 331°
2026-04-30 21:39 -11.67614 131.28528 33971 ft 480 kts 331°
2026-04-30 21:40 -11.61675 131.25419 33969 ft 480 kts 331°
2026-04-30 21:40 -11.55732 131.22308 33967 ft 480 kts 331°
2026-04-30 21:41 -11.49784 131.19196 33974 ft 481 kts 331°
2026-04-30 21:41 -11.43835 131.16086 33971 ft 481 kts 331°
2026-04-30 21:42 -11.37875 131.12971 33973 ft 481 kts 331°
2026-04-30 21:42 -11.31912 131.09856 33965 ft 481 kts 331°
2026-04-30 21:43 -11.26954 131.07268 33973 ft 481 kts 331°
2026-04-30 21:43 -11.20033 131.03656 33974 ft 481 kts 331°
2026-04-30 21:44 -11.14070 131.00544 33971 ft 481 kts 331°
2026-04-30 21:44 -11.08109 130.97436 33972 ft 481 kts 331°
2026-04-30 21:45 -11.02154 130.94333 33971 ft 481 kts 331°
2026-04-30 21:45 -10.96197 130.91230 33974 ft 481 kts 331°
2026-04-30 21:46 -10.90238 130.88127 33965 ft 480 kts 331°
2026-04-30 21:46 -10.85293 130.85553 33966 ft 480 kts 331°
2026-04-30 21:47 -10.79346 130.82459 33972 ft 480 kts 331°
2026-04-30 21:47 -10.72414 130.78855 33968 ft 481 kts 331°
2026-04-30 21:48 -10.67457 130.76278 33962 ft 481 kts 331°
2026-04-30 21:48 -10.61493 130.73180 33968 ft 481 kts 331°
2026-04-30 21:49 -10.55527 130.70081 33973 ft 482 kts 331°
2026-04-30 21:49 -10.49556 130.66980 33962 ft 482 kts 332°
2026-04-30 21:50 -10.43574 130.63877 33966 ft 483 kts 332°
2026-04-30 21:50 -10.37598 130.60778 33968 ft 483 kts 331°
2026-04-30 21:51 -10.31610 130.57675 33960 ft 483 kts 331°
2026-04-30 21:51 -10.25635 130.54575 33957 ft 482 kts 332°
2026-04-30 21:52 -10.19667 130.51484 33964 ft 481 kts 331°
2026-04-30 21:52 -10.13704 130.48397 33965 ft 481 kts 331°
2026-04-30 21:53 -10.07730 130.45306 33956 ft 482 kts 331°
2026-04-30 21:53 -10.01745 130.42210 33965 ft 483 kts 331°
2026-04-30 21:54 -9.95744 130.39110 33965 ft 484 kts 332°
2026-04-30 21:54 -9.89740 130.36005 33953 ft 484 kts 332°
2026-04-30 21:55 -9.83775 130.32922 33948 ft 484 kts 332°
2026-04-30 21:55 -9.77785 130.29827 33957 ft 482 kts 332°
2026-04-30 21:56 -9.71811 130.26744 33951 ft 482 kts 331°
2026-04-30 21:56 -9.65836 130.23659 33941 ft 482 kts 332°
2026-04-30 21:57 -9.59848 130.20570 33957 ft 483 kts 331°
2026-04-30 21:57 -9.53853 130.17477 33960 ft 484 kts 332°
2026-04-30 21:58 -9.47841 130.14380 33946 ft 485 kts 331°
2026-04-30 21:58 -9.41827 130.11283 33953 ft 485 kts 332°
2026-04-30 21:59 -9.35809 130.08182 33954 ft 485 kts 331°
2026-04-30 22:00 -9.26798 130.03543 33948 ft 484 kts 331°
2026-04-30 22:00 -9.17793 129.98911 33954 ft 484 kts 332°
2026-04-30 22:01 -9.11784 129.95821 33951 ft 485 kts 332°
2026-04-30 22:01 -9.05769 129.92729 33944 ft 485 kts 332°
2026-04-30 22:02 -8.99750 129.89634 33949 ft 486 kts 332°
2026-04-30 22:02 -8.93713 129.86534 33947 ft 487 kts 332°
2026-04-30 22:03 -8.87670 129.83431 33948 ft 487 kts 332°
2026-04-30 22:03 -8.81618 129.80323 33951 ft 488 kts 332°
2026-04-30 22:04 -8.75566 129.77218 33945 ft 488 kts 332°
2026-04-30 22:05 -8.66465 129.72550 33950 ft 489 kts 332°
2026-04-30 22:05 -8.60392 129.69435 33945 ft 490 kts 332°
2026-04-30 22:06 -8.54292 129.66438 33932 ft 492 kts 337°
2026-04-30 22:06 -8.44480 129.63341 33959 ft 492 kts 343°
2026-04-30 22:07 -8.37902 129.61406 33957 ft 493 kts 342°
2026-04-30 22:07 -8.31327 129.59437 33939 ft 493 kts 342°
2026-04-30 22:08 -8.24761 129.57450 33941 ft 492 kts 342°
2026-04-30 22:08 -8.18202 129.55462 33949 ft 492 kts 342°
2026-04-30 22:09 -8.11644 129.53476 33946 ft 492 kts 342°
2026-04-30 22:09 -8.05075 129.51489 33947 ft 493 kts 342°
2026-04-30 22:10 -7.98508 129.49505 33946 ft 493 kts 343°
2026-04-30 22:10 -7.91939 129.47519 33942 ft 493 kts 343°
2026-04-30 22:11 -7.82080 129.44541 33942 ft 493 kts 343°
2026-04-30 22:12 -7.75510 129.42557 33942 ft 492 kts 343°
2026-04-30 22:12 -7.68949 129.40576 33941 ft 492 kts 343°
2026-04-30 22:13 -7.62436 129.38611 33942 ft 492 kts 343°
2026-04-30 22:13 -7.55878 129.36632 33939 ft 491 kts 343°
2026-04-30 22:14 -7.49327 129.34657 33937 ft 491 kts 343°
2026-04-30 22:14 -7.42778 129.32683 33943 ft 491 kts 343°
2026-04-30 22:15 -7.36230 129.30709 33935 ft 492 kts 343°
2026-04-30 22:15 -7.29669 129.28732 33942 ft 492 kts 344°
2026-04-30 22:16 -7.23117 129.26759 33938 ft 492 kts 345°
2026-04-30 22:17 -7.10014 129.22814 33936 ft 491 kts 345°
2026-04-30 22:17 -7.00237 129.19873 33930 ft 491 kts 345°
2026-04-30 22:18 -6.90407 129.16916 33935 ft 492 kts 344°
2026-04-30 22:19 -6.80564 129.13957 33931 ft 492 kts 345°
2026-04-30 22:20 -6.70717 129.10997 33938 ft 493 kts 344°
2026-04-30 22:20 -6.60831 129.08028 33928 ft 495 kts 344°
2026-04-30 22:21 -6.54234 129.06047 33931 ft 495 kts 345°
2026-04-30 22:21 -6.47641 129.04067 33939 ft 494 kts 344°
2026-04-30 22:22 -6.41051 129.02090 33932 ft 494 kts 345°
2026-04-30 22:22 -6.34467 129.00114 33937 ft 493 kts 345°
2026-04-30 22:23 -6.27896 128.98145 33937 ft 492 kts 344°
2026-04-30 22:23 -6.21332 128.96176 33937 ft 492 kts 345°
2026-04-30 22:24 -6.14770 128.94208 33928 ft 492 kts 345°
2026-04-30 22:24 -6.08224 128.92245 33925 ft 491 kts 345°
2026-04-30 22:25 -6.01727 128.90298 33928 ft 490 kts 345°
2026-04-30 22:25 -5.95194 128.88342 33927 ft 490 kts 344°
2026-04-30 22:26 -5.85393 128.85406 33951 ft 490 kts 345°
2026-04-30 22:27 -5.78844 128.83447 33932 ft 491 kts 345°
2026-04-30 22:27 -5.69032 128.80510 33918 ft 491 kts 345°
2026-04-30 22:28 -5.59208 128.77569 33924 ft 491 kts 345°
2026-04-30 22:29 -5.46113 128.73653 33925 ft 490 kts 345°
2026-04-30 22:31 -5.23278 128.66829 33946 ft 490 kts 344°
2026-04-30 22:32 -5.06929 128.61945 33951 ft 490 kts 344°
2026-04-30 22:33 -4.91665 128.57387 33934 ft 491 kts 345°
2026-04-30 22:35 -4.75301 128.52506 33938 ft 491 kts 345°
2026-04-30 22:36 -4.58918 128.47620 33938 ft 492 kts 345°
2026-04-30 22:37 -4.45797 128.43709 33937 ft 492 kts 345°
2026-04-30 22:38 -4.32708 128.39808 33939 ft 492 kts 345°
2026-04-30 22:39 -4.22853 128.36872 33940 ft 492 kts 345°
2026-04-30 22:40 -4.03133 128.30999 33940 ft 493 kts 345°
2026-04-30 22:41 -3.86686 128.26104 33918 ft 493 kts 344°
2026-04-30 22:43 -3.66962 128.20234 33914 ft 492 kts 344°
2026-04-30 22:44 -3.54010 128.15773 33918 ft 493 kts 339°
2026-04-30 22:45 -3.34829 128.08252 33929 ft 494 kts 340°
2026-04-30 22:47 -3.15601 128.00791 33936 ft 495 kts 340°
2026-04-30 22:48 -3.02766 127.95811 33931 ft 494 kts 340°
2026-04-30 22:49 -2.83530 127.88349 33934 ft 496 kts 340°
2026-04-30 22:51 -2.64164 127.80838 33929 ft 498 kts 340°
2026-04-30 22:52 -2.54471 127.77080 33931 ft 497 kts 340°
2026-04-30 22:53 -2.41570 127.72080 33930 ft 497 kts 340°
2026-04-30 22:53 -2.31940 127.68348 33933 ft 497 kts 340°
2026-04-30 22:55 -2.15799 127.62094 33932 ft 498 kts 340°
2026-04-30 22:56 -2.02857 127.57080 33936 ft 499 kts 340°
2026-04-30 22:57 -1.86652 127.50804 33932 ft 500 kts 340°
2026-04-30 22:58 -1.73675 127.45778 33934 ft 500 kts 340°
2026-04-30 22:59 -1.54188 127.38233 33938 ft 502 kts 340°